DW7000 Weather Reports


time (UTC)temp
F
wind
direction
speed
knots
gust
knots
rain 1hr
in
rain 24hr
in
rain mn
in
humidity
%
barometer
mb
20260505100042 53 117 0.0 0.0 0.00 0.00 0.00 72 1012.5
20260505094540 54 117 0.0 0.0 0.00 0.00 0.00 69 1012.3
20260505093035 55 116 0.0 0.0 0.00 0.00 0.00 66 1012.4
20260505091534 55 116 0.0 0.0 0.00 0.00 0.00 66 1012.4
20260505090036 56 148 0.0 0.0 0.00 0.00 0.00 64 1012.2
20260505084527 59 120 0.0 0.0 0.00 0.00 0.00 55 1012.1
20260505083024 59 186 0.0 0.0 0.00 0.00 0.00 52 1011.9
20260505081537 60 162 0.0 0.9 0.00 0.00 0.00 51 1011.8
20260505080023 60 330 0.0 0.9 0.00 0.00 0.00 51 1011.9
20260505074522 60 158 0.0 0.9 0.00 0.00 0.00 51 1011.8
20260505073023 60 158 0.0 0.0 0.00 0.00 0.00 52 1012.0
20260505071539 60 129 0.0 3.5 0.00 0.00 0.00 53 1012.1
20260505070018 60 158 0.0 0.9 0.00 0.00 0.00 54 1012.1
20260505064522 59 235 0.0 0.0 0.00 0.00 0.00 56 1012.3
20260505063015 59 136 0.0 0.0 0.00 0.00 0.00 57 1012.3
20260505061513 59 208 0.0 0.0 0.00 0.00 0.00 59 1012.4
20260505060011 60 143 0.0 0.0 0.00 0.00 0.00 59 1012.5
20260505054511 60 122 0.0 0.9 0.00 0.00 0.00 58 1012.4
20260505053012 60 170 0.0 2.6 0.00 0.00 0.00 59 1012.5
20260505051509 60 134 0.0 0.0 0.00 0.00 0.00 58 1012.5
20260505041503 61 150 0.0 0.0 0.00 0.00 0.00 57 1012.6
20260505040106 61 198 0.0 0.0 0.00 0.00 0.00 56 1012.7
20260505034558 62 180 0.0 0.0 0.00 0.00 0.00 56 1012.8
20260505033100 62 114 0.0 2.6 0.00 0.00 0.00 55 1012.8
20260505031559 62 155 0.0 0.0 0.00 0.00 0.00 54 1013.0
20260505030103 62 155 0.0 0.0 0.00 0.00 0.00 53 1012.9
20260505024557 63 140 0.0 0.0 0.00 0.00 0.00 52 1012.8
20260505023058 63 127 0.0 0.0 0.00 0.00 0.00 52 1012.9
20260505021559 63 148 0.0 0.0 0.00 0.00 0.00 52 1012.7
20260505020058 63 150 0.0 0.0 0.00 0.00 0.00 52 1012.6
20260505014554 62 144 0.0 0.0 0.00 0.00 0.00 53 1012.5
20260505013053 63 129 0.0 0.0 0.00 0.00 0.00 52 1012.4
20260505011555 64 125 0.0 0.0 0.00 0.00 0.00 50 1012.2
20260505010100 64 139 0.0 0.0 0.00 0.00 0.00 49 1012.2
20260505004552 64 144 0.0 0.0 0.00 0.00 0.00 49 1012.1
20260505003051 64 169 0.0 0.0 0.00 0.00 0.00 49 1012.1
20260505001551 65 158 0.0 0.0 0.00 0.00 0.00 48 1012.0
20260505000055 66 136 0.0 0.0 0.00 0.00 0.00 46 1011.9
20260504234549 67 230 0.0 0.0 0.00 0.00 0.00 45 1011.8
20260504233052 68 170 0.0 0.0 0.00 0.00 0.00 44 1011.6
20260504231546 70 195 0.0 0.0 0.00 0.00 0.00 44 1011.6
20260504230047 70 256 0.0 0.0 0.00 0.00 0.00 44 1011.5
20260504224548 70 156 0.0 2.6 0.00 0.00 0.00 42 1011.5
20260504223044 71 193 0.0 2.6 0.00 0.00 0.00 40 1011.5
20260504221544 72 203 0.0 0.9 0.00 0.00 0.00 40 1011.5
20260504220055 72 194 0.0 3.5 0.00 0.00 0.00 38 1011.6
20260504214550 73 159 0.0 1.7 0.00 0.00 0.00 37 1011.5
20260504213048 73 153 0.0 1.7 0.00 0.00 0.00 37 1011.5
20260504211539 73 150 0.0 0.9 0.00 0.00 0.00 36 1011.6
20260504210038 74 157 0.0 1.7 0.00 0.00 0.00 34 1011.7
20260504204536 74 239 0.0 0.9 0.00 0.00 0.00 36 1011.8
20260504203036 74 191 0.0 4.3 0.00 0.00 0.00 34 1011.7
20260504201534 75 142 0.0 1.7 0.00 0.00 0.00 31 1012.0
20260504200040 75 134 0.0 0.0 0.00 0.00 0.00 34 1012.1
20260504194531 74 132 0.0 0.0 0.00 0.00 0.00 31 1012.3
20260504193028 75 207 0.0 0.9 0.00 0.00 0.00 31 1012.5
20260504191538 74 136 0.0 0.0 0.00 0.00 0.00 29 1012.7
20260504190024 74 145 0.0 0.9 0.00 0.00 0.00 30 1012.9
20260504184523 74 203 0.0 1.7 0.00 0.00 0.00 33 1013.1
20260504183035 74 191 0.0 1.7 0.00 0.00 0.00 31 1013.3
20260504181523 73 167 0.0 0.0 0.00 0.00 0.00 31 1013.4
20260504180020 73 214 0.0 0.0 0.00 0.00 0.00 32 1013.5
20260504174516 73 119 0.0 0.9 0.00 0.00 0.00 33 1013.7
20260504173012 74 210 0.0 0.0 0.00 0.00 0.00 34 1013.8
20260504171510 73 150 0.0 0.0 0.00 0.00 0.00 35 1013.9